カタログに戻る

YUNYAO-1 33

運用中気象SSO
NORAD 61898·PAYLOAD·🇨🇳 China
この衛星名は、まだ公式ソースで確認されていません。

打ち上げ Nov 11, 2024 から Jiuquan Satellite Launch Center

Loading…

次のパス (今後24時間)

TLE

最新Source: Space-Track

元期: Sep 14, 2026, 10:56 UTC

1 61898U 24205E   26257.45579615  .00005520  00000-0  31232-3 0  9995
2 61898  97.4040 325.3788 0055848  55.1124 305.5338 15.12111698101703

AllMySatでYUNYAO-1 33をリアルタイム追跡

Download on the App Store